Airfield :
LOGIN :

Register | Disclaimer

   EN    FR    IT 

 










Legend :    VFR   Marginal VFR   IFR   Intensive IFR   Very Intensive IFR
Visi :
Ceiling :
>= 8 km
>= 3000ft
5 to 8 km
1000 to 3000 ft
1500m to 5 km
500 to 1000 ft
800 to 1500m
200 to 500 ft
< 800m
< 200 ft
Symbols :   Thunderstorms  Fog  Heavy snow  Heavy precipitations  Wind > 20 kt
SIGMETs :     Misc.  Thunderstorms  Icing  Turbulence  Mountain Waves  Volcanic Ashes







- Airport Elevation : 13 ft
- IATA code : OST


EBOS - Oostend bruges Int.

CURRENT METAR :
  • 121620Z 07007KT 9999 FEW020 02/M00 Q1024 NOSIG

EXPIRED METARs :
  • 121550Z 08005KT 9999 FEW020 03/M01 Q1024 NOSIG
  • 121520Z 09005KT 9999 FEW020 03/M01 Q1024 NOSIG
  • 121450Z 10006KT 9999 FEW020 05/00 Q1024 NOSIG
  • 121420Z 09007KT 9999 FEW020 06/01 Q1024 NOSIG
  • 121350Z 09008KT 9999 FEW020 06/01 Q1024 NOSIG

TAF TAF EBOS
Valid from the 12 at 12:00 until the 13 at 18:00 UTC


121110Z 1212/1318 11008KT 8000 FEW040
No reported NOTAMs for that airfield.



MET'MAP, your aeronautical weather chart ! - Copyright ORBIFLY December 2007 - Disclaimer

ORBIFLY MET'MAP TEAM :

Programming & Development : Alexandra Zaïnal
Concept & Development : Baudouin d'Aumeries
Co-Development & Prog : Marc-Olivier Méhu
Technical & hardware support : Manuel Goepfert

Contact : metmap@orbifly.com




SOURCES & CREDITS :

   NOAA